Weather History for Dubai International Airport, UAE

Change the Weather History Date:

Friday, August 2, 2013

  Actual Average Record
Temperature  
Mean Temperature 96 °F -  
Max Temperature 105 °F 103 °F - ()
Min Temperature 87 °F 86 °F - ()
Cooling Degree Days 31    
Growing Degree Days 46 (Base 50)    
Moisture  
Dew Point 77 °F    
Average Humidity 56    
Maximum Humidity 79    
Minimum Humidity 19    
Precipitation  
Precipitation 0.00 in 0.00 in - ()
Sea Level Pressure  
Sea Level Pressure 29.39 in    
Wind  
Wind Speed 6 mph ()    
Max Wind Speed 15 mph    
Max Gust Speed -    
Visibility 5.1 miles    
Events      
T = Trace of Precipitation, MM = Missing Value Source: Averaged Metar Reports

Daily Weather History Graph

Daily Weather History Graph

Search for Another Location

Airport:

Trip Planner

Search our weather history database for the weather conditions in past years. The results will help you decide how hot, cold, wet, or windy it might be!

Date:

Astronomy

Aug. 02, 2013 Rise Set
Actual Time 5:46 AM GST 7:03 PM GST
Civil Twilight 5:21 AM GST 7:27 PM GST
Nautical Twilight 4:52 AM GST 7:56 PM GST
Astronomical Twilight 4:22 AM GST 8:26 PM GST
Moon 1:52 AM GST 3:37 PM GST
Length of Visible Light 14h 06m
Length of Day
13h 16m
Waning Crescent, 18% of the Moon is Illuminated
Aug 2
Waning Crescent
Aug 7
New
Aug 14
First Quarter
Aug 21
Full
Aug 28
Last Quarter

Hourly Weather History & Observations

Time (GST) Temp. Heat Index Dew Point Humidity Pressure Visibility Wind Dir Wind Speed Gust Speed Precip Events Conditions
12:00 AM 91.4 °F 111.0 °F 80.6 °F 71% 29.42 in - SSW 5.8 mph - N/A   Clear
1:00 AM 91 °F - 80 °F 62% 29.40 in 6 mi SSW 5.8 mph - -  
1:00 AM 91.4 °F 107.2 °F 78.8 °F 66% 29.39 in - SSW 5.8 mph - N/A   Clear
2:00 AM 89.6 °F 104.7 °F 78.8 °F 70% 29.39 in - South 5.8 mph - N/A   Clear
3:00 AM 89.6 °F 108.2 °F 80.6 °F 75% 29.39 in - South 5.8 mph - N/A   Clear
4:00 AM 89.6 °F 108.2 °F 80.6 °F 75% 29.36 in - South 6.9 mph - N/A   Clear
5:00 AM 87.8 °F 104.9 °F 80.6 °F 79% 29.39 in - South 6.9 mph - N/A   Clear
6:00 AM 87.8 °F 104.9 °F 80.6 °F 79% 29.39 in 4.3 mi South 5.8 mph - N/A   Unknown
7:00 AM 88 °F - 80 °F 71% 29.41 in 4 mi SSW 5.8 mph - -   Widespread Dust
7:00 AM 87.8 °F 104.9 °F 80.6 °F 79% 29.39 in 4.3 mi SSW 5.8 mph - N/A   Unknown
8:00 AM 89.6 °F 108.2 °F 80.6 °F 75% 29.42 in 4.3 mi SW 6.9 mph - N/A   Unknown
9:00 AM 91.4 °F 107.2 °F 78.8 °F 66% 29.42 in 5.0 mi South 5.8 mph - N/A   Unknown
10:00 AM 95.0 °F 104.5 °F 73.4 °F 49% 29.42 in 5.0 mi Variable 4.6 mph - N/A   Unknown
11:00 AM 100.4 °F 106.3 °F 68.0 °F 35% 29.42 in 5.0 mi SSE 5.8 mph - N/A   Unknown
12:00 PM 104.0 °F 107.4 °F 64.4 °F 27% 29.39 in 5.0 mi South 4.6 mph - N/A   Unknown
1:00 PM 105 °F - 65 °F 19% 29.39 in 5 mi SE 4.6 mph - -   Widespread Dust
1:00 PM 105.8 °F 109.8 °F 64.4 °F 26% 29.39 in 5.0 mi SE 4.6 mph - N/A   Unknown
1:39 PM 102.2 °F 124.9 °F 80.6 °F 50% 29.36 in 5.6 mi NW 11.5 mph - N/A   Unknown
2:00 PM 102.2 °F 124.9 °F 80.6 °F 50% 29.36 in 5.6 mi NW 12.7 mph - N/A   Unknown
3:00 PM 102.2 °F 121.5 °F 78.8 °F 47% 29.33 in - West 9.2 mph - N/A   Clear
4:00 PM 100.4 °F 119.5 °F 78.8 °F 50% 29.33 in 5.6 mi WNW 11.5 mph - N/A   Unknown
5:00 PM 98.6 °F 120.3 °F 80.6 °F 56% 29.33 in 5.6 mi NW 15.0 mph - N/A   Unknown
6:00 PM 96.8 °F 112.2 °F 77.0 °F 53% 29.36 in - NNW 11.5 mph - N/A   Clear
7:00 PM 96 °F - 77 °F 46% 29.37 in 6 mi NNW 8.1 mph - -   Clear
7:00 PM 96.8 °F 112.2 °F 77.0 °F 53% 29.36 in - NNW 8.1 mph - N/A   Clear
8:00 PM 95.0 °F 112.2 °F 78.8 °F 59% 29.39 in - NNW 5.8 mph - N/A   Clear
9:00 PM 95.0 °F 107.4 °F 75.2 °F 53% 29.39 in - WNW 3.5 mph - N/A   Clear
10:00 PM 96.8 °F 107.3 °F 73.4 °F 47% 29.42 in - WSW 3.5 mph - N/A   Clear
11:00 PM 96.8 °F 107.3 °F 73.4 °F 47% 29.42 in - Variable 2.3 mph - N/A   Clear